owner,sensor,date,latitude,longitude,vertical_datum,sea_water_temperature,qcFlag
Enven,ioos:station:wmo:42383:2,2022-11-01T13:31:00Z,27.3704,-89.9241,27.9,29.3,11111222
Enven,ioos:station:wmo:42383:2,2022-11-01T13:51:00Z,27.3704,-89.9241,27.9,29.1,11111222
Enven,ioos:station:wmo:42383:2,2022-11-01T14:11:00Z,27.3704,-89.9241,27.9,29.4,11111222
Enven,ioos:station:wmo:42383:2,2022-11-01T14:31:00Z,27.3704,-89.9241,27.9,29.2,11111222
Enven,ioos:station:wmo:42383:2,2022-11-01T14:51:00Z,27.3704,-89.9241,27.9,28.9,11111222
Enven,ioos:station:wmo:42383:2,2022-11-01T15:11:00Z,27.3704,-89.9241,27.9,29.0,11111222
Enven,ioos:station:wmo:42383:2,2022-11-01T15:31:00Z,27.3704,-89.9241,27.9,28.9,11111222
Enven,ioos:station:wmo:42383:2,2022-11-01T15:51:00Z,27.3704,-89.9241,27.9,28.9,11111222
Enven,ioos:station:wmo:42383:2,2022-11-01T16:11:00Z,27.3704,-89.9241,27.9,29.2,11111222
Enven,ioos:station:wmo:42383:2,2022-11-01T16:31:00Z,27.3704,-89.9241,27.9,29.0,11111222
Enven,ioos:station:wmo:42383:2,2022-11-01T16:51:00Z,27.3704,-89.9241,27.9,29.2,11111222
Enven,ioos:station:wmo:42383:2,2022-11-01T17:11:00Z,27.3704,-89.9241,27.9,29.8,11111222
Enven,ioos:station:wmo:42383:2,2022-11-01T17:31:00Z,27.3704,-89.9241,27.9,29.2,11111222
Enven,ioos:station:wmo:42383:2,2022-11-01T17:51:00Z,27.3704,-89.9241,27.9,29.0,11111222
Enven,ioos:station:wmo:42383:2,2022-11-01T18:11:00Z,27.3704,-89.9241,27.9,29.2,11111222
Enven,ioos:station:wmo:42383:2,2022-11-01T18:31:00Z,27.3704,-89.9241,27.9,29.1,11111222
Enven,ioos:station:wmo:42383:2,2022-11-01T18:51:00Z,27.3704,-89.9241,27.9,29.0,11111222
Enven,ioos:station:wmo:42383:2,2022-11-01T19:11:00Z,27.3704,-89.9241,27.9,29.1,11111222
Enven,ioos:station:wmo:42383:2,2022-11-01T19:31:00Z,27.3704,-89.9241,27.9,29.2,11111222
Enven,ioos:station:wmo:42383:2,2022-11-01T19:51:00Z,27.3704,-89.9241,27.9,29.1,11111222
Enven,ioos:station:wmo:42383:2,2022-11-01T20:11:00Z,27.3704,-89.9241,27.9,29.0,11111222
Enven,ioos:station:wmo:42383:2,2022-11-01T20:31:00Z,27.3704,-89.9241,27.9,29.0,11111222
Enven,ioos:station:wmo:42383:2,2022-11-01T20:51:00Z,27.3704,-89.9241,27.9,29.1,11111222
Enven,ioos:station:wmo:42383:2,2022-11-01T21:11:00Z,27.3704,-89.9241,27.9,29.3,11111222
Enven,ioos:station:wmo:42383:2,2022-11-01T21:31:00Z,27.3704,-89.9241,27.9,28.9,11111222
Enven,ioos:station:wmo:42383:2,2022-11-01T21:51:00Z,27.3704,-89.9241,27.9,28.9,11111222
Enven,ioos:station:wmo:42383:2,2022-11-01T22:11:00Z,27.3704,-89.9241,27.9,28.9,11111222
Enven,ioos:station:wmo:42383:2,2022-11-01T22:31:00Z,27.3704,-89.9241,27.9,29.0,11111222
Enven,ioos:station:wmo:42383:2,2022-11-01T22:51:00Z,27.3704,-89.9241,27.9,29.1,11111222
Enven,ioos:station:wmo:42383:2,2022-11-01T23:11:00Z,27.3704,-89.9241,27.9,29.1,11111222
Enven,ioos:station:wmo:42383:2,2022-11-01T23:31:00Z,27.3704,-89.9241,27.9,29.0,11111222
Enven,ioos:station:wmo:42383:2,2022-11-01T23:51:00Z,27.3704,-89.9241,27.9,28.9,11111222
Enven,ioos:station:wmo:42383:2,2022-11-02T00:11:00Z,27.3704,-89.9241,27.9,28.9,11111222
Enven,ioos:station:wmo:42383:2,2022-11-02T00:31:00Z,27.3704,-89.9241,27.9,28.9,11111222
Enven,ioos:station:wmo:42383:2,2022-11-02T00:51:00Z,27.3704,-89.9241,27.9,28.8,11111222
Enven,ioos:station:wmo:42383:2,2022-11-02T01:11:00Z,27.3704,-89.9241,27.9,29.0,11111222
Enven,ioos:station:wmo:42383:2,2022-11-02T01:31:00Z,27.3704,-89.9241,27.9,29.1,11111222
Enven,ioos:station:wmo:42383:2,2022-11-02T01:51:00Z,27.3704,-89.9241,27.9,28.9,11111222
Enven,ioos:station:wmo:42383:2,2022-11-02T02:11:00Z,27.3704,-89.9241,27.9,29.0,11111222
Enven,ioos:station:wmo:42383:2,2022-11-02T02:31:00Z,27.3704,-89.9241,27.9,29.1,11111222
Enven,ioos:station:wmo:42383:2,2022-11-02T02:51:00Z,27.3704,-89.9241,27.9,29.1,11111222
Enven,ioos:station:wmo:42383:2,2022-11-02T03:11:00Z,27.3704,-89.9241,27.9,29.4,11111222
Enven,ioos:station:wmo:42383:2,2022-11-02T03:31:00Z,27.3704,-89.9241,27.9,29.3,11111222
Enven,ioos:station:wmo:42383:2,2022-11-02T03:51:00Z,27.3704,-89.9241,27.9,28.8,11111222
Enven,ioos:station:wmo:42383:2,2022-11-02T04:11:00Z,27.3704,-89.9241,27.9,29.3,11111222
Enven,ioos:station:wmo:42383:2,2022-11-02T04:31:00Z,27.3704,-89.9241,27.9,28.9,11111222
Enven,ioos:station:wmo:42383:2,2022-11-02T04:51:00Z,27.3704,-89.9241,27.9,28.9,11111222
Enven,ioos:station:wmo:42383:2,2022-11-02T05:11:00Z,27.3704,-89.9241,27.9,29.0,11111222
Enven,ioos:station:wmo:42383:2,2022-11-02T05:31:00Z,27.3704,-89.9241,27.9,28.9,11111222
Enven,ioos:station:wmo:42383:2,2022-11-02T05:51:00Z,27.3704,-89.9241,27.9,28.8,11111222
Enven,ioos:station:wmo:42383:2,2022-11-02T06:11:00Z,27.3704,-89.9241,27.9,29.2,11111222
Enven,ioos:station:wmo:42383:2,2022-11-02T06:31:00Z,27.3704,-89.9241,27.9,29.0,11111222
Enven,ioos:station:wmo:42383:2,2022-11-02T06:51:00Z,27.3704,-89.9241,27.9,29.0,11111222
Enven,ioos:station:wmo:42383:2,2022-11-02T07:11:00Z,27.3704,-89.9241,27.9,29.1,11111222
Enven,ioos:station:wmo:42383:2,2022-11-02T07:31:00Z,27.3704,-89.9241,27.9,28.9,11111222
Enven,ioos:station:wmo:42383:2,2022-11-02T07:51:00Z,27.3704,-89.9241,27.9,28.9,11111222
Enven,ioos:station:wmo:42383:2,2022-11-02T08:11:00Z,27.3704,-89.9241,27.9,29.0,11111222
Enven,ioos:station:wmo:42383:2,2022-11-02T08:31:00Z,27.3704,-89.9241,27.9,28.9,11111222
Enven,ioos:station:wmo:42383:2,2022-11-02T08:51:00Z,27.3704,-89.9241,27.9,28.8,11111222
Enven,ioos:station:wmo:42383:2,2022-11-02T09:11:00Z,27.3704,-89.9241,27.9,29.0,11111222
Enven,ioos:station:wmo:42383:2,2022-11-02T09:31:00Z,27.3704,-89.9241,27.9,29.2,11111222
Enven,ioos:station:wmo:42383:2,2022-11-02T09:51:00Z,27.3704,-89.9241,27.9,29.2,11111222
Enven,ioos:station:wmo:42383:2,2022-11-02T10:11:00Z,27.3704,-89.9241,27.9,29.0,11111222
Enven,ioos:station:wmo:42383:2,2022-11-02T10:31:00Z,27.3704,-89.9241,27.9,29.1,11111222
Enven,ioos:station:wmo:42383:2,2022-11-02T10:51:00Z,27.3704,-89.9241,27.9,29.0,11111222
Enven,ioos:station:wmo:42383:2,2022-11-02T11:11:00Z,27.3704,-89.9241,27.9,28.9,11111222
Enven,ioos:station:wmo:42383:2,2022-11-02T11:31:00Z,27.3704,-89.9241,27.9,28.4,11111222
Enven,ioos:station:wmo:42383:2,2022-11-02T11:51:00Z,27.3704,-89.9241,27.9,28.8,11111222
Enven,ioos:station:wmo:42383:2,2022-11-02T12:11:00Z,27.3704,-89.9241,27.9,28.9,11111222
Enven,ioos:station:wmo:42383:2,2022-11-02T12:31:00Z,27.3704,-89.9241,27.9,28.4,11111222
Enven,ioos:station:wmo:42383:2,2022-11-02T12:51:00Z,27.3704,-89.9241,27.9,28.6,11111222
Enven,ioos:station:wmo:42383:2,2022-11-02T13:11:00Z,27.3704,-89.9241,27.9,28.9,11111222
Enven,ioos:station:wmo:42383:2,2022-11-02T13:31:00Z,27.3704,-89.9241,27.9,29.0,11111222
Enven,ioos:station:wmo:42383:2,2022-11-02T13:51:00Z,27.3704,-89.9241,27.9,29.2,11111222
Enven,ioos:station:wmo:42383:2,2022-11-02T14:11:00Z,27.3704,-89.9241,27.9,29.3,11111222
Enven,ioos:station:wmo:42383:2,2022-11-02T14:31:00Z,27.3704,-89.9241,27.9,29.4,11111222
Enven,ioos:station:wmo:42383:2,2022-11-02T14:51:00Z,27.3704,-89.9241,27.9,29.2,11111222
Enven,ioos:station:wmo:42383:2,2022-11-02T15:11:00Z,27.3704,-89.9241,27.9,29.0,11111222
Enven,ioos:station:wmo:42383:2,2022-11-02T15:31:00Z,27.3704,-89.9241,27.9,29.1,11111222
Enven,ioos:station:wmo:42383:2,2022-11-02T15:51:00Z,27.3704,-89.9241,27.9,28.9,11111222
Enven,ioos:station:wmo:42383:2,2022-11-02T16:11:00Z,27.3704,-89.9241,27.9,29.1,11111222
Enven,ioos:station:wmo:42383:2,2022-11-02T16:31:00Z,27.3704,-89.9241,27.9,29.3,11111222
Enven,ioos:station:wmo:42383:2,2022-11-02T16:51:00Z,27.3704,-89.9241,27.9,29.3,11111222
Enven,ioos:station:wmo:42383:2,2022-11-02T17:11:00Z,27.3704,-89.9241,27.9,29.4,11111222
Enven,ioos:station:wmo:42383:2,2022-11-02T17:31:00Z,27.3704,-89.9241,27.9,29.1,11111222
Enven,ioos:station:wmo:42383:2,2022-11-02T17:51:00Z,27.3704,-89.9241,27.9,29.2,11111222
Enven,ioos:station:wmo:42383:2,2022-11-02T18:11:00Z,27.3704,-89.9241,27.9,29.0,11111222
Enven,ioos:station:wmo:42383:2,2022-11-02T18:31:00Z,27.3704,-89.9241,27.9,29.0,11111222
Enven,ioos:station:wmo:42383:2,2022-11-02T18:51:00Z,27.3704,-89.9241,27.9,29.0,11111222
Enven,ioos:station:wmo:42383:2,2022-11-02T19:11:00Z,27.3704,-89.9241,27.9,29.0,11111222
Enven,ioos:station:wmo:42383:2,2022-11-02T19:31:00Z,27.3704,-89.9241,27.9,29.1,11111222
Enven,ioos:station:wmo:42383:2,2022-11-02T19:51:00Z,27.3704,-89.9241,27.9,28.9,11111222
Enven,ioos:station:wmo:42383:2,2022-11-02T20:11:00Z,27.3704,-89.9241,27.9,29.0,11111222
Enven,ioos:station:wmo:42383:2,2022-11-02T20:31:00Z,27.3704,-89.9241,27.9,29.0,11111222
Enven,ioos:station:wmo:42383:2,2022-11-02T20:51:00Z,27.3704,-89.9241,27.9,29.2,11111222
Enven,ioos:station:wmo:42383:2,2022-11-02T21:11:00Z,27.3704,-89.9241,27.9,29.1,11111222
Enven,ioos:station:wmo:42383:2,2022-11-02T21:31:00Z,27.3704,-89.9241,27.9,29.1,11111222
Enven,ioos:station:wmo:42383:2,2022-11-02T21:51:00Z,27.3704,-89.9241,27.9,29.1,11111222
Enven,ioos:station:wmo:42383:2,2022-11-02T22:11:00Z,27.3704,-89.9241,27.9,29.0,11111222
Enven,ioos:station:wmo:42383:2,2022-11-02T22:31:00Z,27.3704,-89.9241,27.9,29.1,11111222
Enven,ioos:station:wmo:42383:2,2022-11-02T22:51:00Z,27.3704,-89.9241,27.9,29.0,11111222
Enven,ioos:station:wmo:42383:2,2022-11-02T23:11:00Z,27.3704,-89.9241,27.9,29.1,11111222
Enven,ioos:station:wmo:42383:2,2022-11-02T23:31:00Z,27.3704,-89.9241,27.9,29.2,11111222
Enven,ioos:station:wmo:42383:2,2022-11-02T23:51:00Z,27.3704,-89.9241,27.9,29.2,11111222
Enven,ioos:station:wmo:42383:2,2022-11-03T00:11:00Z,27.3704,-89.9241,27.9,29.3,11111222
Enven,ioos:station:wmo:42383:2,2022-11-03T00:31:00Z,27.3704,-89.9241,27.9,29.1,11111222
Enven,ioos:station:wmo:42383:2,2022-11-03T00:51:00Z,27.3704,-89.9241,27.9,29.2,11111222
Enven,ioos:station:wmo:42383:2,2022-11-03T01:11:00Z,27.3704,-89.9241,27.9,29.2,11111222
Enven,ioos:station:wmo:42383:2,2022-11-03T01:31:00Z,27.3704,-89.9241,27.9,29.1,11111222
Enven,ioos:station:wmo:42383:2,2022-11-03T01:51:00Z,27.3704,-89.9241,27.9,29.2,11111222
Enven,ioos:station:wmo:42383:2,2022-11-03T02:11:00Z,27.3704,-89.9241,27.9,29.1,11111222
Enven,ioos:station:wmo:42383:2,2022-11-03T02:31:00Z,27.3704,-89.9241,27.9,28.9,11111222
Enven,ioos:station:wmo:42383:2,2022-11-03T02:51:00Z,27.3704,-89.9241,27.9,29.1,11111222
Enven,ioos:station:wmo:42383:2,2022-11-03T03:11:00Z,27.3704,-89.9241,27.9,29.0,11111222
Enven,ioos:station:wmo:42383:2,2022-11-03T03:31:00Z,27.3704,-89.9241,27.9,29.1,11111222
Enven,ioos:station:wmo:42383:2,2022-11-03T03:51:00Z,27.3704,-89.9241,27.9,29.1,11111222
Enven,ioos:station:wmo:42383:2,2022-11-03T04:11:00Z,27.3704,-89.9241,27.9,29.0,11111222
Enven,ioos:station:wmo:42383:2,2022-11-03T04:31:00Z,27.3704,-89.9241,27.9,29.3,11111222
Enven,ioos:station:wmo:42383:2,2022-11-03T04:51:00Z,27.3704,-89.9241,27.9,28.9,11111222
Enven,ioos:station:wmo:42383:2,2022-11-03T05:11:00Z,27.3704,-89.9241,27.9,29.2,11111222
Enven,ioos:station:wmo:42383:2,2022-11-03T05:31:00Z,27.3704,-89.9241,27.9,29.1,11111222
Enven,ioos:station:wmo:42383:2,2022-11-03T05:51:00Z,27.3704,-89.9241,27.9,29.1,11111222
Enven,ioos:station:wmo:42383:2,2022-11-03T06:11:00Z,27.3704,-89.9241,27.9,29.2,11111222
Enven,ioos:station:wmo:42383:2,2022-11-03T06:31:00Z,27.3704,-89.9241,27.9,29.3,11111222
Enven,ioos:station:wmo:42383:2,2022-11-03T06:51:00Z,27.3704,-89.9241,27.9,29.4,11111222
Enven,ioos:station:wmo:42383:2,2022-11-03T07:11:00Z,27.3704,-89.9241,27.9,29.3,11111222
Enven,ioos:station:wmo:42383:2,2022-11-03T07:31:00Z,27.3704,-89.9241,27.9,29.4,11111222
Enven,ioos:station:wmo:42383:2,2022-11-03T07:51:00Z,27.3704,-89.9241,27.9,29.4,11111222
Enven,ioos:station:wmo:42383:2,2022-11-03T08:11:00Z,27.3704,-89.9241,27.9,29.4,11111222
Enven,ioos:station:wmo:42383:2,2022-11-03T08:31:00Z,27.3704,-89.9241,27.9,29.3,11111222
Enven,ioos:station:wmo:42383:2,2022-11-03T08:51:00Z,27.3704,-89.9241,27.9,29.3,11111222
Enven,ioos:station:wmo:42383:2,2022-11-03T09:11:00Z,27.3704,-89.9241,27.9,29.2,11111222
Enven,ioos:station:wmo:42383:2,2022-11-03T09:31:00Z,27.3704,-89.9241,27.9,29.0,11111222
Enven,ioos:station:wmo:42383:2,2022-11-03T09:51:00Z,27.3704,-89.9241,27.9,28.9,11111222
Enven,ioos:station:wmo:42383:2,2022-11-03T10:11:00Z,27.3704,-89.9241,27.9,28.9,11111222
Enven,ioos:station:wmo:42383:2,2022-11-03T10:31:00Z,27.3704,-89.9241,27.9,28.8,11111222
Enven,ioos:station:wmo:42383:2,2022-11-03T10:51:00Z,27.3704,-89.9241,27.9,28.8,11111222
Enven,ioos:station:wmo:42383:2,2022-11-03T11:11:00Z,27.3704,-89.9241,27.9,28.8,11111222
Enven,ioos:station:wmo:42383:2,2022-11-03T11:31:00Z,27.3704,-89.9241,27.9,28.9,11111222
Enven,ioos:station:wmo:42383:2,2022-11-03T11:51:00Z,27.3704,-89.9241,27.9,28.7,11111222
Enven,ioos:station:wmo:42383:2,2022-11-03T12:11:00Z,27.3704,-89.9241,27.9,28.9,11111222
Enven,ioos:station:wmo:42383:2,2022-11-03T12:31:00Z,27.3704,-89.9241,27.9,29.0,11111222
Enven,ioos:station:wmo:42383:2,2022-11-03T12:51:00Z,27.3704,-89.9241,27.9,28.9,11111222
Enven,ioos:station:wmo:42383:2,2022-11-03T13:11:00Z,27.3704,-89.9241,27.9,29.3,11111222
Enven,ioos:station:wmo:42383:2,2022-11-03T13:31:00Z,27.3704,-89.9241,27.9,28.9,11111222
Enven,ioos:station:wmo:42383:2,2022-11-03T13:51:00Z,27.3704,-89.9241,27.9,28.9,11111222
Enven,ioos:station:wmo:42383:2,2022-11-03T14:11:00Z,27.3704,-89.9241,27.9,28.9,11111222
Enven,ioos:station:wmo:42383:2,2022-11-03T14:31:00Z,27.3704,-89.9241,27.9,28.9,11111222
Enven,ioos:station:wmo:42383:2,2022-11-03T14:51:00Z,27.3704,-89.9241,27.9,28.9,11111222
Enven,ioos:station:wmo:42383:2,2022-11-03T15:11:00Z,27.3704,-89.9241,27.9,29.0,11111222
Enven,ioos:station:wmo:42383:2,2022-11-03T15:31:00Z,27.3704,-89.9241,27.9,29.0,11111222
Enven,ioos:station:wmo:42383:2,2022-11-03T15:51:00Z,27.3704,-89.9241,27.9,28.8,11111222
Enven,ioos:station:wmo:42383:2,2022-11-03T16:11:00Z,27.3704,-89.9241,27.9,28.9,11111222
Enven,ioos:station:wmo:42383:2,2022-11-03T16:31:00Z,27.3704,-89.9241,27.9,28.9,11111222
Enven,ioos:station:wmo:42383:2,2022-11-03T16:51:00Z,27.3704,-89.9241,27.9,28.8,11111222
Enven,ioos:station:wmo:42383:2,2022-11-03T17:11:00Z,27.3704,-89.9241,27.9,29.0,11111222
Enven,ioos:station:wmo:42383:2,2022-11-03T17:31:00Z,27.3704,-89.9241,27.9,29.0,11111222
Enven,ioos:station:wmo:42383:2,2022-11-03T17:51:00Z,27.3704,-89.9241,27.9,28.9,11111222
Enven,ioos:station:wmo:42383:2,2022-11-03T18:11:00Z,27.3704,-89.9241,27.9,28.8,11111222
Enven,ioos:station:wmo:42383:2,2022-11-03T18:32:00Z,27.3704,-89.9241,27.9,28.8,11111222
Enven,ioos:station:wmo:42383:2,2022-11-03T18:51:00Z,27.3704,-89.9241,27.9,28.7,11111222
Enven,ioos:station:wmo:42383:2,2022-11-03T19:11:00Z,27.3704,-89.9241,27.9,28.7,11111222
Enven,ioos:station:wmo:42383:2,2022-11-03T19:31:00Z,27.3704,-89.9241,27.9,28.8,11111222
Enven,ioos:station:wmo:42383:2,2022-11-03T19:51:00Z,27.3704,-89.9241,27.9,28.6,11111222
Enven,ioos:station:wmo:42383:2,2022-11-03T20:11:00Z,27.3704,-89.9241,27.9,28.7,11111222
Enven,ioos:station:wmo:42383:2,2022-11-03T20:31:00Z,27.3704,-89.9241,27.9,28.8,11111222
Enven,ioos:station:wmo:42383:2,2022-11-03T20:51:00Z,27.3704,-89.9241,27.9,28.7,11111222
Enven,ioos:station:wmo:42383:2,2022-11-03T21:11:00Z,27.3704,-89.9241,27.9,28.7,11111222
Enven,ioos:station:wmo:42383:2,2022-11-03T21:31:00Z,27.3704,-89.9241,27.9,29.0,11111222
Enven,ioos:station:wmo:42383:2,2022-11-03T21:51:00Z,27.3704,-89.9241,27.9,28.8,11111222
Enven,ioos:station:wmo:42383:2,2022-11-03T22:11:00Z,27.3704,-89.9241,27.9,28.6,11111222
Enven,ioos:station:wmo:42383:2,2022-11-03T22:31:00Z,27.3704,-89.9241,27.9,28.6,11111222
Enven,ioos:station:wmo:42383:2,2022-11-03T22:51:00Z,27.3704,-89.9241,27.9,28.6,11111222
Enven,ioos:station:wmo:42383:2,2022-11-03T23:11:00Z,27.3704,-89.9241,27.9,28.7,11111222
Enven,ioos:station:wmo:42383:2,2022-11-03T23:31:00Z,27.3704,-89.9241,27.9,28.8,11111222
Enven,ioos:station:wmo:42383:2,2022-11-03T23:51:00Z,27.3704,-89.9241,27.9,28.6,11111222
Enven,ioos:station:wmo:42383:2,2022-11-04T00:11:00Z,27.3704,-89.9241,27.9,28.6,11111222
Enven,ioos:station:wmo:42383:2,2022-11-04T00:31:00Z,27.3704,-89.9241,27.9,28.9,11111222
Enven,ioos:station:wmo:42383:2,2022-11-04T00:51:00Z,27.3704,-89.9241,27.9,28.6,11111222
Enven,ioos:station:wmo:42383:2,2022-11-04T01:11:00Z,27.3704,-89.9241,27.9,28.6,11111222
Enven,ioos:station:wmo:42383:2,2022-11-04T01:31:00Z,27.3704,-89.9241,27.9,28.6,11111222
Enven,ioos:station:wmo:42383:2,2022-11-04T01:51:00Z,27.3704,-89.9241,27.9,28.5,11111222
Enven,ioos:station:wmo:42383:2,2022-11-04T02:11:00Z,27.3704,-89.9241,27.9,28.7,11111222
Enven,ioos:station:wmo:42383:2,2022-11-04T02:31:00Z,27.3704,-89.9241,27.9,28.7,11111222
Enven,ioos:station:wmo:42383:2,2022-11-04T02:51:00Z,27.3704,-89.9241,27.9,28.7,11111222
Enven,ioos:station:wmo:42383:2,2022-11-04T03:11:00Z,27.3704,-89.9241,27.9,28.5,11111222
Enven,ioos:station:wmo:42383:2,2022-11-04T03:31:00Z,27.3704,-89.9241,27.9,28.6,11111222
Enven,ioos:station:wmo:42383:2,2022-11-04T03:51:00Z,27.3704,-89.9241,27.9,28.5,11111222
Enven,ioos:station:wmo:42383:2,2022-11-04T04:11:00Z,27.3704,-89.9241,27.9,28.3,11111222
Enven,ioos:station:wmo:42383:2,2022-11-04T04:31:00Z,27.3704,-89.9241,27.9,28.5,11111222
Enven,ioos:station:wmo:42383:2,2022-11-04T04:51:00Z,27.3704,-89.9241,27.9,28.5,11111222
Enven,ioos:station:wmo:42383:2,2022-11-04T05:11:00Z,27.3704,-89.9241,27.9,28.5,11111222
Enven,ioos:station:wmo:42383:2,2022-11-04T05:31:00Z,27.3704,-89.9241,27.9,28.5,11111222
Enven,ioos:station:wmo:42383:2,2022-11-04T05:51:00Z,27.3704,-89.9241,27.9,29.0,11111222
Enven,ioos:station:wmo:42383:2,2022-11-04T06:11:00Z,27.3704,-89.9241,27.9,29.6,11111222
Enven,ioos:station:wmo:42383:2,2022-11-04T06:31:00Z,27.3704,-89.9241,27.9,29.6,11111222
Enven,ioos:station:wmo:42383:2,2022-11-04T06:51:00Z,27.3704,-89.9241,27.9,29.4,11111222
Enven,ioos:station:wmo:42383:2,2022-11-04T07:11:00Z,27.3704,-89.9241,27.9,29.2,11111222
Enven,ioos:station:wmo:42383:2,2022-11-04T07:31:00Z,27.3704,-89.9241,27.9,30.1,11111222
Enven,ioos:station:wmo:42383:2,2022-11-04T07:51:00Z,27.3704,-89.9241,27.9,28.8,11111222
Enven,ioos:station:wmo:42383:2,2022-11-04T08:11:00Z,27.3704,-89.9241,27.9,28.6,11111222
Enven,ioos:station:wmo:42383:2,2022-11-04T08:31:00Z,27.3704,-89.9241,27.9,28.5,11111222
Enven,ioos:station:wmo:42383:2,2022-11-04T08:51:00Z,27.3704,-89.9241,27.9,28.7,11111222
Enven,ioos:station:wmo:42383:2,2022-11-04T09:11:00Z,27.3704,-89.9241,27.9,28.9,11111222
Enven,ioos:station:wmo:42383:2,2022-11-04T09:31:00Z,27.3704,-89.9241,27.9,29.0,11111222
Enven,ioos:station:wmo:42383:2,2022-11-04T09:51:00Z,27.3704,-89.9241,27.9,28.9,11111222
Enven,ioos:station:wmo:42383:2,2022-11-04T10:11:00Z,27.3704,-89.9241,27.9,28.7,11111222
Enven,ioos:station:wmo:42383:2,2022-11-04T10:31:00Z,27.3704,-89.9241,27.9,28.9,11111222
Enven,ioos:station:wmo:42383:2,2022-11-04T10:51:00Z,27.3704,-89.9241,27.9,28.9,11111222
Enven,ioos:station:wmo:42383:2,2022-11-04T11:11:00Z,27.3704,-89.9241,27.9,28.8,11111222
Enven,ioos:station:wmo:42383:2,2022-11-04T11:31:00Z,27.3704,-89.9241,27.9,29.2,11111222
Enven,ioos:station:wmo:42383:2,2022-11-04T11:51:00Z,27.3704,-89.9241,27.9,28.7,11111222
Enven,ioos:station:wmo:42383:2,2022-11-04T12:11:00Z,27.3704,-89.9241,27.9,29.0,11111222
Enven,ioos:station:wmo:42383:2,2022-11-04T12:31:00Z,27.3704,-89.9241,27.9,29.2,11111222
Enven,ioos:station:wmo:42383:2,2022-11-04T12:51:00Z,27.3704,-89.9241,27.9,29.1,11111222
Enven,ioos:station:wmo:42383:2,2022-11-04T13:11:00Z,27.3704,-89.9241,27.9,29.1,11111222
Enven,ioos:station:wmo:42383:2,2022-11-04T13:31:00Z,27.3704,-89.9241,27.9,29.2,11111222
Enven,ioos:station:wmo:42383:2,2022-11-04T13:51:00Z,27.3704,-89.9241,27.9,29.2,11111222
Enven,ioos:station:wmo:42383:2,2022-11-04T14:11:00Z,27.3704,-89.9241,27.9,29.2,11111222
Enven,ioos:station:wmo:42383:2,2022-11-04T14:31:00Z,27.3704,-89.9241,27.9,29.1,11111222
Enven,ioos:station:wmo:42383:2,2022-11-04T14:51:00Z,27.3704,-89.9241,27.9,29.3,11111222
Enven,ioos:station:wmo:42383:2,2022-11-04T15:11:00Z,27.3704,-89.9241,27.9,29.2,11111222
Enven,ioos:station:wmo:42383:2,2022-11-04T15:31:00Z,27.3704,-89.9241,27.9,28.9,11111222
Enven,ioos:station:wmo:42383:2,2022-11-04T15:51:00Z,27.3704,-89.9241,27.9,29.1,11111222
Enven,ioos:station:wmo:42383:2,2022-11-04T16:11:00Z,27.3704,-89.9241,27.9,29.3,11111222
Enven,ioos:station:wmo:42383:2,2022-11-04T16:31:00Z,27.3704,-89.9241,27.9,29.1,11111222
Enven,ioos:station:wmo:42383:2,2022-11-04T16:51:00Z,27.3704,-89.9241,27.9,28.9,11111222
Enven,ioos:station:wmo:42383:2,2022-11-04T17:11:00Z,27.3704,-89.9241,27.9,29.1,11111222
Enven,ioos:station:wmo:42383:2,2022-11-04T17:31:00Z,27.3704,-89.9241,27.9,29.0,11111222
Enven,ioos:station:wmo:42383:2,2022-11-04T17:51:00Z,27.3704,-89.9241,27.9,29.0,11111222
Enven,ioos:station:wmo:42383:2,2022-11-04T18:11:00Z,27.3704,-89.9241,27.9,29.1,11111222
Enven,ioos:station:wmo:42383:2,2022-11-04T18:31:00Z,27.3704,-89.9241,27.9,29.2,11111222
Enven,ioos:station:wmo:42383:2,2022-11-04T18:51:00Z,27.3704,-89.9241,27.9,29.2,11111222
Enven,ioos:station:wmo:42383:2,2022-11-04T19:11:00Z,27.3704,-89.9241,27.9,29.0,11111222
Enven,ioos:station:wmo:42383:2,2022-11-04T19:31:00Z,27.3704,-89.9241,27.9,29.4,11111222
Enven,ioos:station:wmo:42383:2,2022-11-04T19:51:00Z,27.3704,-89.9241,27.9,29.1,11111222
Enven,ioos:station:wmo:42383:2,2022-11-04T20:11:00Z,27.3704,-89.9241,27.9,29.0,11111222
Enven,ioos:station:wmo:42383:2,2022-11-04T20:31:00Z,27.3704,-89.9241,27.9,29.1,11111222
Enven,ioos:station:wmo:42383:2,2022-11-04T20:51:00Z,27.3704,-89.9241,27.9,29.0,11111222
Enven,ioos:station:wmo:42383:2,2022-11-04T21:11:00Z,27.3704,-89.9241,27.9,29.2,11111222
Enven,ioos:station:wmo:42383:2,2022-11-04T21:31:00Z,27.3704,-89.9241,27.9,29.0,11111222
Enven,ioos:station:wmo:42383:2,2022-11-04T21:51:00Z,27.3704,-89.9241,27.9,29.2,11111222
Enven,ioos:station:wmo:42383:2,2022-11-04T22:11:00Z,27.3704,-89.9241,27.9,29.2,11111222
Enven,ioos:station:wmo:42383:2,2022-11-04T22:31:00Z,27.3704,-89.9241,27.9,28.8,11111222
Enven,ioos:station:wmo:42383:2,2022-11-04T22:51:00Z,27.3704,-89.9241,27.9,28.9,11111222
Enven,ioos:station:wmo:42383:2,2022-11-04T23:11:00Z,27.3704,-89.9241,27.9,28.7,11111222
Enven,ioos:station:wmo:42383:2,2022-11-04T23:31:00Z,27.3704,-89.9241,27.9,28.9,11111222
Enven,ioos:station:wmo:42383:2,2022-11-04T23:51:00Z,27.3704,-89.9241,27.9,29.1,11111222
Enven,ioos:station:wmo:42383:2,2022-11-05T00:11:00Z,27.3704,-89.9241,27.9,28.9,11111222
Enven,ioos:station:wmo:42383:2,2022-11-05T00:31:00Z,27.3704,-89.9241,27.9,29.0,11111222
Enven,ioos:station:wmo:42383:2,2022-11-05T00:51:00Z,27.3704,-89.9241,27.9,29.1,11111222
Enven,ioos:station:wmo:42383:2,2022-11-05T01:11:00Z,27.3704,-89.9241,27.9,29.2,11111222
Enven,ioos:station:wmo:42383:2,2022-11-05T01:31:00Z,27.3704,-89.9241,27.9,29.4,11111222
Enven,ioos:station:wmo:42383:2,2022-11-05T01:51:00Z,27.3704,-89.9241,27.9,29.5,11111222
Enven,ioos:station:wmo:42383:2,2022-11-05T02:11:00Z,27.3704,-89.9241,27.9,29.2,11111222
Enven,ioos:station:wmo:42383:2,2022-11-05T02:31:00Z,27.3704,-89.9241,27.9,29.0,11111222
Enven,ioos:station:wmo:42383:2,2022-11-05T02:51:00Z,27.3704,-89.9241,27.9,29.1,11111222
Enven,ioos:station:wmo:42383:2,2022-11-05T03:11:00Z,27.3704,-89.9241,27.9,29.1,11111222
Enven,ioos:station:wmo:42383:2,2022-11-05T03:31:00Z,27.3704,-89.9241,27.9,29.2,11111222
Enven,ioos:station:wmo:42383:2,2022-11-05T03:51:00Z,27.3704,-89.9241,27.9,29.3,11111222
Enven,ioos:station:wmo:42383:2,2022-11-05T04:11:00Z,27.3704,-89.9241,27.9,29.4,11111222
Enven,ioos:station:wmo:42383:2,2022-11-05T04:31:00Z,27.3704,-89.9241,27.9,29.1,11111222
Enven,ioos:station:wmo:42383:2,2022-11-05T04:51:00Z,27.3704,-89.9241,27.9,29.4,11111222
Enven,ioos:station:wmo:42383:2,2022-11-05T05:11:00Z,27.3704,-89.9241,27.9,29.3,11111222
Enven,ioos:station:wmo:42383:2,2022-11-05T05:31:00Z,27.3704,-89.9241,27.9,29.6,11111222
Enven,ioos:station:wmo:42383:2,2022-11-05T05:51:00Z,27.3704,-89.9241,27.9,29.4,11111222
Enven,ioos:station:wmo:42383:2,2022-11-05T06:11:00Z,27.3704,-89.9241,27.9,29.0,11111222
Enven,ioos:station:wmo:42383:2,2022-11-05T06:31:00Z,27.3704,-89.9241,27.9,29.1,11111222